THY717 VIDP-LTFM

Flight info

Callsign THY717
Flight time N/A
Altitude 38000
Route SURAM7E SURAM G333 MERUN L750 GODSI/N0496F400 L750 RANAH B449 DUKAN N449 SULEL M747 AGDAM DCT MATAL DCT NOLGA UN61 TBN UM11 CRM UL746 GOKPA UM10 HAKAN UW702 GUMRU UT315 NUGBA
Aircraft A359/H-SDE2E3GHIJ3J4J5LM1ORWXY/LB1D1

Departure

Time 2026-04-29 10:56
Airport Indira Gandhi International Airport (VIDP)

Arrival

Time N/A
Airport İstanbul Airport (LTFM)
Time Latitude Longitude Altitude Speed Heading
2026-04-29 10:33 28.55234 77.08572 750 ft 0 kts 18°
2026-04-29 10:44 28.55217 77.08568 750 ft 3 kts 349°
2026-04-29 10:44 28.55205 77.08571 751 ft 3 kts 328°
2026-04-29 10:45 28.55191 77.08587 750 ft 3 kts 287°
2026-04-29 10:45 28.55189 77.08609 750 ft 2 kts 246°
2026-04-29 10:47 28.55189 77.08608 750 ft 2 kts 245°
2026-04-29 10:47 28.55165 77.08551 751 ft 12 kts 244°
2026-04-29 10:47 28.55124 77.08455 750 ft 14 kts 242°
2026-04-29 10:48 28.55067 77.08355 750 ft 16 kts 224°
2026-04-29 10:48 28.55026 77.08246 753 ft 16 kts 275°
2026-04-29 10:48 28.55051 77.08115 751 ft 18 kts 285°
2026-04-29 10:48 28.55082 77.07970 746 ft 20 kts 283°
2026-04-29 10:49 28.55119 77.07810 745 ft 22 kts 287°
2026-04-29 10:49 28.55204 77.07753 744 ft 12 kts
2026-04-29 10:49 28.55298 77.07775 744 ft 16 kts 13°
2026-04-29 10:49 28.55423 77.07812 742 ft 21 kts 15°
2026-04-29 10:50 28.55582 77.07859 740 ft 25 kts 14°
2026-04-29 10:50 28.55755 77.07909 739 ft 26 kts 13°
2026-04-29 10:50 28.55934 77.07959 739 ft 27 kts 14°
2026-04-29 10:50 28.56115 77.08017 736 ft 27 kts 16°
2026-04-29 10:51 28.56294 77.08075 734 ft 15 kts 20°
2026-04-29 10:51 28.56311 77.08083 735 ft 0 kts 21°
2026-04-29 10:51 28.56322 77.08080 736 ft 6 kts 348°
2026-04-29 10:51 28.56359 77.08038 735 ft 8 kts 311°
2026-04-29 10:52 28.56398 77.08019 736 ft 6 kts 354°
2026-04-29 10:52 28.56438 77.08027 736 ft 6 kts 20°
2026-04-29 10:52 28.56487 77.08079 735 ft 14 kts 54°
2026-04-29 10:52 28.56531 77.08172 735 ft 14 kts 62°
2026-04-29 10:53 28.56577 77.08273 735 ft 15 kts 62°
2026-04-29 10:53 28.56628 77.08377 734 ft 16 kts 60°
2026-04-29 10:53 28.56683 77.08489 734 ft 17 kts 59°
2026-04-29 10:53 28.56765 77.08575 735 ft 16 kts 35°
2026-04-29 10:54 28.56847 77.08648 735 ft 15 kts 40°
2026-04-29 10:54 28.56928 77.08727 735 ft 16 kts 42°
2026-04-29 10:54 28.57012 77.08814 735 ft 16 kts 45°
2026-04-29 10:54 28.57049 77.08917 737 ft 10 kts 84°
2026-04-29 10:55 28.57049 77.08936 738 ft 0 kts 89°
2026-04-29 10:55 28.57049 77.08937 738 ft 3 kts 88°
2026-04-29 10:55 28.57046 77.09214 741 ft 68 kts 92°
2026-04-29 10:55 28.57031 77.10003 760 ft 134 kts 91°
2026-04-29 10:56 28.56987 77.11270 1019 ft 175 kts 92°
2026-04-29 10:56 28.56923 77.12718 1822 ft 186 kts 91°
2026-04-29 10:56 28.56882 77.14069 2307 ft 212 kts 91°
2026-04-29 10:56 28.56843 77.15788 2591 ft 228 kts 91°
2026-04-29 10:57 28.56802 77.17681 2787 ft 250 kts 91°
2026-04-29 10:57 28.56758 77.19717 3121 ft 264 kts 91°
2026-04-29 10:57 28.56711 77.21837 3666 ft 271 kts 91°
2026-04-29 10:57 28.56663 77.23988 4246 ft 275 kts 91°
2026-04-29 10:58 28.56614 77.26184 4852 ft 278 kts 90°
2026-04-29 10:58 28.56564 77.28411 5428 ft 283 kts 91°
2026-04-29 10:58 28.56418 77.30633 6029 ft 287 kts 101°
2026-04-29 10:58 28.55592 77.32688 6631 ft 289 kts 130°
2026-04-29 10:59 28.53978 77.34031 7199 ft 290 kts 161°
2026-04-29 10:59 28.51996 77.34294 7759 ft 290 kts 191°
2026-04-29 10:59 28.50070 77.33647 8411 ft 290 kts 203°
2026-04-29 10:59 28.48183 77.32800 9086 ft 293 kts 204°
2026-04-29 11:00 28.46283 77.31944 9537 ft 295 kts 204°
2026-04-29 11:00 28.38852 77.28679 9676 ft 297 kts 204°
2026-04-29 11:00 28.34548 77.21543 9672 ft 285 kts 257°
2026-04-29 11:00 28.32362 77.12918 9688 ft 283 kts 256°
2026-04-29 11:01 28.32676 77.04246 10034 ft 306 kts 287°
2026-04-29 11:01 28.35327 76.94014 11176 ft 359 kts 286°
2026-04-29 11:01 28.38231 76.83014 13424 ft 369 kts 290°
2026-04-29 11:01 28.42253 76.72144 15462 ft 377 kts 292°
2026-04-29 11:02 28.46397 76.61024 17396 ft 386 kts 292°
2026-04-29 11:02 28.50627 76.49630 19052 ft 397 kts 292°
2026-04-29 11:02 28.55160 76.37998 20741 ft 407 kts 294°
2026-04-29 11:02 28.59963 76.26051 22341 ft 420 kts 294°
2026-04-29 11:03 28.64822 76.13878 23848 ft 432 kts 294°
2026-04-29 11:03 28.69820 76.01313 25454 ft 441 kts 294°
2026-04-29 11:03 28.74274 75.88107 26940 ft 455 kts 280°
2026-04-29 11:03 28.74333 75.79531 27802 ft 464 kts 266°
2026-04-29 11:04 28.74035 75.75862 28293 ft 463 kts 266°
2026-04-29 11:04 28.73695 75.72214 28861 ft 462 kts 265°
2026-04-29 11:04 28.73345 75.68565 29170 ft 466 kts 265°
2026-04-29 11:04 28.72994 75.64873 29466 ft 469 kts 265°
2026-04-29 11:05 28.72650 75.61165 29768 ft 472 kts 266°
2026-04-29 11:05 28.72312 75.57443 30057 ft 473 kts 266°
2026-04-29 11:05 28.71977 75.53709 30368 ft 474 kts 266°
2026-04-29 11:05 28.71737 75.49974 30656 ft 473 kts 271°
2026-04-29 11:06 28.71869 75.46295 31024 ft 469 kts 278°
2026-04-29 11:06 28.72284 75.42616 31499 ft 465 kts 280°
2026-04-29 11:06 28.72799 75.39002 32104 ft 457 kts 282°
2026-04-29 11:06 28.73356 75.35462 32669 ft 452 kts 282°
2026-04-29 11:07 28.73932 75.31941 32895 ft 454 kts 282°
2026-04-29 11:07 28.74518 75.28386 33001 ft 458 kts 282°
2026-04-29 11:07 28.75101 75.24802 33347 ft 456 kts 282°
2026-04-29 11:07 28.75662 75.21299 33758 ft 452 kts 282°
2026-04-29 11:08 28.76218 75.17781 34090 ft 450 kts 282°
2026-04-29 11:08 28.76768 75.14275 34370 ft 448 kts 282°
2026-04-29 11:08 28.77314 75.10782 34645 ft 447 kts 282°
2026-04-29 11:08 28.77857 75.07294 34913 ft 445 kts 282°
2026-04-29 11:09 28.78393 75.03838 35238 ft 441 kts 283°
2026-04-29 11:09 28.78925 75.00404 35638 ft 437 kts 283°
2026-04-29 11:09 28.79453 74.97000 35885 ft 435 kts 283°
2026-04-29 11:09 28.79980 74.93599 36073 ft 435 kts 283°
2026-04-29 11:10 28.80506 74.90200 36258 ft 435 kts 283°
2026-04-29 11:10 28.81031 74.86807 36459 ft 434 kts 283°
2026-04-29 11:10 28.81546 74.83466 36688 ft 433 kts 283°
2026-04-29 11:10 28.82066 74.80084 36897 ft 432 kts 283°
2026-04-29 11:11 28.82582 74.76723 37082 ft 431 kts 283°
2026-04-29 11:11 28.83099 74.73350 37283 ft 430 kts 283°
2026-04-29 11:11 28.83612 74.69999 37471 ft 429 kts 283°